sat.trackr.live / text

‹ back to catalog

STARLINK-11230 [DTC]

NORAD 61053 · 2024-164D

PAYLOAD ACTIVE UNKNOWN

§ Identity

Operator
Country
US
Launch date
2024-09-13
Launch site
AFWTR
Launch vehicle
Mass (kg)
RCS (m²)

Purposes: comms

External: N2YO · Heavens-Above · Gunter

§ Orbital elements

Epoch: 2026-05-24T20:31:35.373792Z

Period
91.74 min
Inclination
53.1579°
Eccentricity
0.0000989
Mean motion
15.69712720 rev/d
Perigee alt
359.1 km
Apogee alt
360.4 km
Semi-major
6,737.9 km
B*
8.7195e-6
RAAN
295.6451°
Arg perigee
93.7232°
Mean anomaly
266.3899°
Rev number
9,738

§ Raw data

STARLINK-11230 [DTC]1 61053U 24164D   26144.85527053  .00000468  00000+0  87195-5 0  99962 61053  53.1579 295.6451 0000989  93.7232 266.3899 15.69712720 97381

JSON: /api/v1/satellites/61053 · /tle

For live sub-satellite position, see the globe view (requires WebGL).

§ Visibility from observer

Set your observer location to see the next 7 days of passes ≥ 10°. The values pass through the URL so the page stays shareable.

No JS? Fill the form by hand. The geolocation button needs JavaScript.